Weather History for Fryeburg, ME

Change the Weather History Date:

Monday, June 10, 2013

  Actual Average Record
Temperature  
Mean Temperature 58 °F -  
Max Temperature 71 °F 72 °F 98 °F (2008)
Min Temperature 46 °F 46 °F 39 °F (2004)
Degree Days  
Heating Degree Days 6    
Growing Degree Days 8 (Base 50)    
Moisture  
Dew Point 52 °F    
Average Humidity 81    
Maximum Humidity 100    
Minimum Humidity 55    
Precipitation  
Precipitation 0.02 in - - ()
Sea Level Pressure  
Sea Level Pressure 30.16 in    
Wind  
Wind Speed 1 mph (South)    
Max Wind Speed 7 mph    
Max Gust Speed -    
Visibility 9 miles    
Events Rain    
Averages and records for this station are not official NWS values.
T = Trace of Precipitation, MM = Missing Value Source: NWS Daily Summary

Daily Weather History Graph

Daily Weather History Graph

Search for Another Location

Airport:

Trip Planner

Search our weather history database for the weather conditions in past years. The results will help you decide how hot, cold, wet, or windy it might be!

Date:

Astronomy

Jun. 10, 2013 Rise Set
Actual Time 5:00 AM EDT 8:26 PM EDT
Civil Twilight 4:24 AM EDT 9:02 PM EDT
Nautical Twilight 3:37 AM EDT 9:49 PM EDT
Astronomical Twilight 2:38 AM EDT 10:49 PM EDT
Moon 6:49 AM EDT (6/10) 9:47 PM EDT (6/10)
Length of Visible Light 16h 37m
Length of Day
15h 25m
Waxing Crescent, 4% of the Moon is Illuminated
Jun 10
Waxing Crescent
Jun 16
First Quarter
Jun 23
Full
Jun 30
Last Quarter
Jul 8
New

Hourly Weather History & Observations

Time (EDT) Temp. Dew Point Humidity Pressure Visibility Wind Dir Wind Speed Gust Speed Precip Events Conditions
12:54 AM 52.0 °F 51.1 °F 97% 30.17 in 10.0 mi Calm Calm - N/A   Clear
1:54 AM 51.1 °F 50.0 °F 96% 30.19 in 10.0 mi WNW 3.5 mph - N/A   Clear
2:54 AM 50.0 °F 48.9 °F 96% 30.18 in 10.0 mi Calm Calm - N/A   Clear
3:54 AM 50.0 °F 48.0 °F 93% 30.18 in 10.0 mi Calm Calm - 0.01 in   Clear
4:33 AM 46.4 °F 46.4 °F 100% 30.19 in 1.8 mi Calm Calm - N/A   Clear
4:43 AM 46.4 °F 46.4 °F 100% 30.19 in 2.0 mi Calm Calm - N/A   Partly Cloudy
4:54 AM 46.9 °F 46.9 °F 100% 30.20 in 2.0 mi Calm Calm - N/A   Partly Cloudy
5:06 AM 46.4 °F 46.4 °F 100% 30.19 in 10.0 mi Calm Calm - N/A   Clear
5:54 AM 48.0 °F 48.0 °F 100% 30.21 in 10.0 mi Calm Calm - N/A   Clear
6:54 AM 53.1 °F 52.0 °F 96% 30.22 in 10.0 mi Calm Calm - 0.01 in   Clear
7:54 AM 57.0 °F 54.0 °F 89% 30.22 in 10.0 mi Calm Calm - N/A   Clear
8:54 AM 63.0 °F 54.0 °F 72% 30.22 in 10.0 mi Calm Calm - N/A   Clear
9:54 AM 66.9 °F 55.0 °F 66% 30.21 in 10.0 mi Calm Calm - N/A   Clear
10:54 AM 69.1 °F 54.0 °F 58% 30.21 in 10.0 mi Variable 3.5 mph - N/A   Clear
11:54 AM 70.0 °F 55.9 °F 61% 30.20 in 10.0 mi South 4.6 mph - N/A   Clear
12:54 PM 71.1 °F 54.0 °F 55% 30.18 in 10.0 mi Variable 3.5 mph - N/A   Clear
1:54 PM 70.0 °F 53.1 °F 55% 30.18 in 10.0 mi South 6.9 mph - N/A   Clear
2:54 PM 70.0 °F 55.0 °F 59% 30.17 in 10.0 mi South 5.8 mph - N/A   Clear
3:54 PM 69.1 °F 55.0 °F 61% 30.15 in 10.0 mi SSE 4.6 mph - N/A   Clear
4:54 PM 68.0 °F 55.9 °F 65% 30.14 in 10.0 mi South 3.5 mph - N/A   Clear
5:54 PM 66.9 °F 55.9 °F 68% 30.12 in 10.0 mi SSE 4.6 mph - N/A   Clear
6:54 PM 64.9 °F 55.9 °F 73% 30.11 in 10.0 mi Calm Calm - N/A   Clear
7:54 PM 63.0 °F 55.9 °F 78% 30.10 in 10.0 mi South 3.5 mph - N/A   Clear
8:54 PM 62.1 °F 55.0 °F 78% 30.09 in 10.0 mi South 4.6 mph - N/A   Mostly Cloudy
9:54 PM 60.1 °F 54.0 °F 80% 30.09 in 10.0 mi South 3.5 mph - N/A   Overcast
10:54 PM 57.0 °F 55.0 °F 93% 30.07 in 10.0 mi Calm Calm - N/A   Overcast
11:54 PM 57.0 °F 55.0 °F 93% 30.06 in 10.0 mi Calm Calm - 0.00 in Rain Light Rain